Regional Weather Roundup
Issued by NWS

Home | Current Version | Previous Version | Graphics & Text | Print | Product List | Glossary Off
Versions: 1 2 3 4 5 6 7 8 9 10 11 12 13 14 15 16 17 18 19 20 21 22 23 24 25 26 27 28 29 30 31 32 33 34 35 36 37 38 39 40 41 42 43 44 45 46 47 48 49 50

015
ASUS43 KLOT 161308
RWRIL

ILLINOIS REGIONAL WEATHER ROUNDUP
NATIONAL WEATHER SERVICE CHICAGO/ROMEOVILLE IL
800 AM CDT WED AUG 16 2017

NOTE: "FAIR" INDICATES FEW OR NO CLOUDS BELOW 12,000 FEET WITH NO
SIGNIFICANT WEATHER AND/OR OBSTRUCTIONS TO VISIBILITY.

* THESE STATIONS ARE NOT UNDER NWS QUALITY CONTROL. THEY ALSO MAY NOT
  REPORT WEATHER SUCH AS PRECIPITATION OR FOG.

ILZ001-002-007-009-015-016-024-161400-
NORTHWEST ILLINOIS

CITY           SKY/WX    TMP DP  RH WIND       PRES   REMARKS
MOLINE         SUNNY     70  65  84 E10       29.95S HAZE
STERLING*      SUNNY     68  65  90 E8        29.98S
SAVANNA*       CLOUDY    67  64  87 E7        29.98S
$$

ILZ003-004-008-010-011-017-018-161400-
NORTH CENTRAL ILLINOIS

CITY           SKY/WX    TMP DP  RH WIND       PRES   REMARKS
ROCKFORD       PTSUNNY   69  62  78 E5        30.01R
FREEPORT*      CLOUDY    63  62  96 NE5       30.02R
ROCHELLE*      SUNNY     68  64  87 SE7       30.01S
DE KALB*       SUNNY     68  65  91 E9        30.02S
PERU*          SUNNY     67  64  88 E8        29.99S
$$

ILZ005-006-012>014-019>023-161400-
NORTHEAST ILLINOIS

CITY           SKY/WX    TMP DP  RH WIND       PRES   REMARKS
CHICAGO-OHARE  MOSUNNY   73  66  78 E9        30.01S
CHICAGO-MIDWAY MOSUNNY   74  66  76 E9        30.01S
AURORA         SUNNY     70  66  87 E6        30.01S
LANSING*       SUNNY     71  62  74 E6        30.01S
JOLIET*        SUNNY     73  67  80 E7        30.00S
WAUKEGAN       SUNNY     70  68  93 NE6       30.01F
DUPAGE AIRPORT SUNNY     70  67  90 E7        30.00S
KANKAKEE*      SUNNY     69  66  90 E5        30.02R
WHEELING       SUNNY     71  69  93 VRB3      30.02F
MORRIS*        SUNNY     68  65  90 E5        29.99S
ROMEOVILLE*    SUNNY     72  64  77 E9        30.01S
NORTHERLY ISL    N/A     73  66  78 NE7         N/A
$$

LMZ740>746-161400-
SOUTHERN LAKE MICHIGAN

STATION/POSITION SKY/WX   TEMP    WIND        PRES    VSBY  WAVE
                          AIR SEA DIR/SP/G                  HT/PER
                          (F)     (DEG/KT/KT) (MB)    (MI)  (FT/S)
SOUTHERN BUOY              70 71   70/  4/  4 1016.8R         1/ 4
WILMETTE HARBOR            72 72   80/  8/ 10   N/A           2/ 4
HARRISON CRIB              73      80/  7/  8   N/A
CALUMET HARBOR             73      60/  5/  8 1015.8S
BURNS HARBOR               71      80/  5/  8 1016.9R
MICHIGAN CITY              68      50/  4/  4   N/A
MICHIGAN CITY 6N           71 74  100/  6/  8   N/A           2/ 4
ST. JOSEPH                 69 73  150/  6/  8 1016.7          1/ 4
$$

ILZ025>027-034>036-040-047-049-050-058-095>099-161400-
WEST-CENTRAL ILLINOIS

CITY           SKY/WX    TMP DP  RH WIND       PRES   REMARKS
QUINCY         PTSUNNY   73  70  90 SE6       29.92R
GALESBURG*     SUNNY     70  67  90 E8        29.96R
MACOMB*        SUNNY     70  70  99 E5        29.96R FOG
JACKSONVILLE*  CLOUDY    73  71  92 SE6       29.94R
PITTSFIELD*    CLOUDY    73  72  97 SE5       29.94R
$$

ILZ028>032-037-038-041>044-048-051>054-059>061-161400-
CENTRAL ILLINOIS

CITY           SKY/WX    TMP DP  RH WIND       PRES   REMARKS
PONTIAC        SUNNY     69  68  98 CALM      29.99F FOG
BLOOMINGTON    SUNNY     72  69  90 SE8       29.99F
DECATUR        MOSUNNY   73  71  93 SE6       29.98S
PEORIA         SUNNY     72  69  90 E6        29.96S
LACON*         SUNNY     68  66  93 E3        29.96F
LINCOLN*       MOSUNNY   73  72  98 CALM      29.96F
SPRINGFIELD    SUNNY     74  72  93 SE8       29.96S
TAYLORVILLE    CLOUDY    72  72  99 SE3       29.97S FOG
$$

ILZ033-039-045-046-055>057-062-063-161400-
EAST-CENTRAL ILLINOIS

CITY           SKY/WX    TMP DP  RH WIND       PRES   REMARKS
CHAMPAIGN      SUNNY     72  70  93 SE5       30.01R
RANTOUL*       SUNNY     73  71  92 S5        30.01R
MATTOON        SUNNY     73  72  96 SE5       29.99S
PARIS*         SUNNY     72  71  96 CALM      30.03R FOG
$$

ILZ079-100>102-161400-
SOUTHWEST ILLINOIS

CITY           SKY/WX    TMP DP  RH WIND       PRES   REMARKS
ALTON          CLOUDY    73  73 100 SE7       29.96R FOG
BELLEVILLE     CLOUDY    74  72  93 S6        29.96S
CAHOKIA*       CLOUDY    76  72  87 SE6       29.94S
SPARTA*        CLOUDY    73  73  97 S8        29.98R
$$

ILZ064>066-069>071-074>076-080>082-084>086-088>090-092>094-161400-
SOUTH-CENTRAL ILLINOIS

CITY           SKY/WX    TMP DP  RH WIND       PRES   REMARKS
CARBONDALE     CLOUDY    75  74  96 SE5       29.98R
CAIRO*         SUNNY     76  74  95 SE6       29.98S
EFFINGHAM*     CLOUDY    75  74  96 E6        30.00S
MARION         PTSUNNY   73  73 100 E5        29.99F FOG
MT. VERNON     CLOUDY    72  72 100 SE5       29.99S FOG
CENTRALIA*     CLOUDY    73  73 100 SE5       29.96F FOG
SALEM*         CLOUDY    74  71  92 E3        29.97F FOG
METROPOLIS*    CLOUDY    75  73  96 CALM      30.00S
$$

ILZ067-068-072-073-078-083-087-091-161400-
SOUTHEAST ILLINOIS

CITY           SKY/WX    TMP DP  RH WIND       PRES   REMARKS
LAWRENCEVILLE  CLOUDY    73  72  96 E5        30.00S FOG
FLORA*         CLOUDY    74  73  94 SE5       29.99S
FAIRFIELD*     CLOUDY    73  72  97 CALM      29.99R
HARRISBURG*    HVY RAIN  73  73 100 SW3       30.01R
ROBINSON*      MOSUNNY   70  70 100 CALM      30.01S FOG
CARMI*         PTSUNNY   73  73 100 S6        30.00R FOG
$$

ABBREVIATIONS USED IN REMARKS
   TC - TEMPERATURE IN CELSIUS
  WCI - WIND CHILL INDEX
   HX - HEAT INDEX
  VSB - VISIBILITY
$$





USA.gov is the U.S. government's official web portal to all federal, state and local government web resources and services.